Flag for Switzerland Weather past 2 weeks in Reinach, Basel-Land, Switzerland

Now
82 °F

Scattered clouds.


Feels Like: 82 °F
Forecast: 56 / 72 °F
Wind: 3 mph from North

Location: Bale-Mulhouse

Current Time: Jul 25, 2014 at 4:31:40 PM

Latest Report: Jul 25, 2014 at 3:00 PM


Visibility: 13 mi

Pressure: 29.84 "Hg

Humidity: 44%

Dew point: 58 °F

Location of ReinachLocation

Historic Weather in Reinach — Graph

°F

Reinach temperature yesterday

Maximum temperature yesterday: 80 °F (at 3:00 PM)
Minimum temperature yesterday: 59 °F (at 6:00 AM)
Average temperature yesterday: 68 °F

Past Weeks' High & Low Weather Summary

 TemperatureHumidityPressure
High92 °F (Jul 18, 5:00 PM)97% (Jul 11, 5:00 AM)30.20 "Hg (Jul 11, 5:00 AM)
Low53 °F (Jul 16, 6:00 AM)19% (Jul 18, 5:00 PM)29.78 "Hg (Jul 19, 7:00 PM)
Average68 °F77%29.97 "Hg
* Reported Jul 10 3:00 PM — Jul 25 3:00 PM, Reinach, Weather by CustomWeather, © 2014

Note: Actual official high and low records may vary slightly from our data, if they occured in-between our weather recording intervals... More about our weather records

Advertising

Reinach weather history for previous 24 hours

 ConditionsComfort  
Time TempWeatherWind HumidityBarometerVisibility
3:00 PM
Jul 25
82 °FScattered clouds.3 mph44%29.84 "Hg12 mi
2:00 PM81 °FPassing clouds.1 mph46%29.85 "Hg12 mi
1:00 PM80 °FPassing clouds.2 mph45%29.87 "Hg12 mi
12:00 PM77 °FPassing clouds.2 mph53%29.88 "Hg7 mi
11:00 AM73 °FPassing clouds.5 mph60%29.90 "Hg7 mi
10:00 AM70 °FPassing clouds.5 mph67%29.91 "Hg7 mi
9:00 AM66 °FPassing clouds.3 mph78%29.92 "Hg7 mi
8:00 AM62 °FPassing clouds.7 mph83%29.93 "Hg7 mi
7:00 AM58 °FPassing clouds.3 mph96%29.93 "Hg7 mi
6:00 AM55 °FFog.2 mph97%29.93 "Hg5 mi
5:00 AM56 °FPassing clouds.No wind96%29.93 "Hg6 mi
4:00 AM57 °FCool.2 mph96%29.93 "Hg7 mi
3:00 AM58 °FCool.2 mph97%29.93 "Hg5 mi
2:00 AM59 °FCool.3 mph94%29.93 "Hg7 mi
1:00 AM62 °FCool.3 mph92%29.92 "Hg11 mi
12:00 AM62 °FPassing clouds.5 mph95%29.93 "Hg7 mi
11:00 PM
Jul 24
63 °FPassing clouds.1 mph94%29.92 "Hg11 mi
10:00 PM64 °FPassing clouds.2 mph93%29.90 "Hg7 mi
9:00 PM68 °FPassing clouds.No wind87%29.88 "Hg19 mi
8:00 PM74 °FScattered clouds.2 mph65%29.86 "Hg19 mi
7:00 PM74 °FScattered clouds.3 mph56%29.85 "Hg19 mi
6:00 PM71 °FThunderstorms. Partly sunny.3 mph72%29.87 "Hg16 mi
5:00 PM69 °FThundershowers. Overcast.3 mph77%29.88 "Hg2 mi
4:00 PM80 °FOvercast.8 mph48%29.85 "Hg16 mi
Weather by CustomWeather, © 2014

See weather overviewHow to use our weather pages